Weather in Arnavutkoy

Turkey     41°10′55″N   28°44′25″E
temp.,
°C
wind,
m/s
gust,
m/s
humid.,
%
clouds,
%
prec.,
mm/h
press.,
hPa
HPBL,
m
15 april, thu
thu1500:00+8n33938 0.0 101752
03:00+8ne23955 0.0 101754
06:00+7ne349444 0.0 101779
09:00+10ne5681100 0.0 1018502
12:00+12ene667155 0.0 1018744
15:00+11ne767433 0.0 1018589
18:00+9ne678130 0.0 1017509
21:00+8ene5983100 0.0 1018442
16 april, fri
fri1600:00+8ene5985100 0.1 1018392
03:00+8ne478764 0.1 1019342
06:00+7ne359264 0.0 1019261
09:00+10ene567930 0.0 1020663
12:00+12ne556722 0.0 1021880
15:00+12ne656842 0.0 1020865
18:00+10ene6771100 0.0 1021612
21:00+8e597594 0.0 1021326
17 april, sat
sat1700:00+8e41074100 0.0 1021341
03:00+8ene51175100 0.0 1020333
06:00+8ene51276100 0.0 1019416
09:00+9ene71281100 0.1 1019542
12:00+11ene81270100 0.0 1019634
15:00+9ene81391100 1.2 1016458
18:00+10ene81293100 0.0 1014430
21:00+9ene71296100 0.0 1012374
18 april, sun
sun1800:00+9nne5897100 0.0 1011305
03:00+9nnw4598100 0.0 1011238
06:00+9nnw359795 0.0 1012235
09:00+11nnw239091 0.0 1013331
12:00+14nw3380100 0.0 1013514
15:00+16nw1272100 0.0 1013357
18:00+13ne3385100 0.0 1013142
21:00+11ne2289100 0.0 101437
19 april, mon
mon1900:00+11e2291100 0.0 101318
03:00+12nne119147 0.2 101216
06:00+13ssw2698100 4.9 1010210
09:00+13w2497100 7.6 1008164
12:00+13n0197100 2.6 100791
15:00+15ssw101685100 3.4 1005835
18:00+14sw916827 0.5 1002688
21:00+10w019861 2.5 100348